Dewpoint
51 51 50 51 51 49 50 52 50 50 51 52 52 51 51 50 49 48 48 47 47 46 47 46 47 48 46 40 37 42 51 56 56 54 47 48 37 43 40 40 37 37 34 32 32 37 37
51 51 50 51 49 49 50 50 51 52 51 52 51 50 49 49 50 48 46 47 46 47 46 47 46 46 43 38 36 39 50 53 54 54 45 47 36 42 39 36 37 36 36 35 31 36 38
51 51 50 49 49 50 50 51 50 51 51 51 51 50 49 50 49 47 47 44 45 47 46 47 46 42 40 36 39 51 51 50 54 52 44 46 42 38 42 38 37 36 34 36 34 35 36
50 50 50 49 49 49 50 50 50 51 51 51 51 49 49 50 48 47 44 45 47 48 48 47 46 41 35 37 40 38 52 47 49 53 47 45 46 40 42 41 37 35 36 32 33 34 35
50 49 49 48 48 49 49 49 50 51 52 52 50 49 50 48 46 43 44 46 48 48 47 47 42 40 32 41 35 36 48 46 48 52 52 46 49 44 43 38 36 34 30 30 32 33 34
50 50 49 48 48 48 49 49 50 51 51 51 51 48 50 48 43 45 46 46 45 45 44 41 38 36 34 34 33 33 46 48 49 50 48 46 46 42 39 36 32 30 29 28 29 31 33
50 49 49 48 48 48 48 49 49 51 51 51 51 48 49 47 44 46 46 44 40 36 36 36 32 31 36 39 38 37 48 48 50 48 41 44 40 37 36 34 31 28 27 25 27 31 31
49 49 49 48 48 48 47 48 48 50 50 50 50 50 47 48 46 47 46 36 37 39 31 29 30 30 33 35 41 46 47 44 45 40 39 41 37 36 37 33 30 26 24 24 26 31 30
49 49 49 48 48 48 47 47 47 48 49 50 49 50 48 47 46 45 39 38 43 42 35 33 38 38 40 43 40 45 43 45 42 38 38 36 35 36 34 32 29 25 25 23 25 31 31
48 49 48 48 48 48 47 47 47 47 47 49 49 49 51 48 44 43 38 41 44 43 33 34 37 40 43 44 43 46 45 44 41 36 35 36 38 37 36 33 30 25 26 27 29 30 25
48 48 48 48 48 48 48 47 47 47 47 47 49 49 50 50 44 40 41 44 45 44 24 36 38 43 45 43 42 43 48 42 38 37 40 38 38 38 38 35 31 29 34 32 32 31 30
48 48 48 48 48 48 48 48 47 47 47 47 48 48 49 48 46 42 45 45 44 31 24 34 40 38 40 40 42 42 45 44 43 39 38 38 41 41 39 40 36 35 33 32 31 30 28
47 47 48 48 48 48 48 48 48 47 47 47 49 49 48 44 43 46 46 42 32 26 36 35 35 38 38 38 39 37 37 38 36 32 33 36 36 40 41 39 39 34 31 27 23 23 23
46 47 47 48 48 48 48 48 48 47 47 49 49 48 47 43 47 47 45 38 26 32 33 37 37 36 36 37 38 38 37 37 40 37 35 32 29 36 38 37 35 33 29 27 18 21 22
46 47 47 48 48 48 48 47 47 47 48 49 50 47 45 48 47 47 41 31 31 35 34 33 34 31 34 35 35 36 38 37 38 40 35 33 32 37 37 39 37 35 34 28 26 18 21
46 46 47 47 48 48 47 47 47 47 47 49 44 43 44 46 47 44 41 34 36 36 32 30 28 31 30 32 33 32 32 33 32 34 33 34 31 37 38 40 38 37 36 30 30 21 17
46 46 47 47 47 47 47 46 46 46 47 49 45 41 44 47 47 43 35 35 33 33 33 30 28 27 29 29 31 27 29 33 31 30 31 32 31 34 37 35 35 35 33 30 28 27 23
45 46 46 46 47 46 46 46 45 45 46 45 45 42 46 48 43 44 38 38 37 33 34 31 32 30 29 29 30 28 28 31 32 32 29 32 32 31 31 31 34 36 34 31 29 25 24
45 45 45 46 46 45 45 45 45 44 44 43 39 41 47 46 38 38 37 33 35 33 31 29 29 32 30 29 27 29 30 36 34 33 30 30 31 26 27 29 31 30 30 33 28 31 29
43 44 45 45 44 44 46 45 45 44 44 44 40 39 44 44 40 37 33 31 32 38 33 30 29 30 29 27 28 29 30 35 35 33 37 34 29 28 25 26 31 28 29 30 30 25 27
43 43 44 43 44 45 47 45 45 45 46 44 40 38 37 39 36 35 36 33 30 30 35 32 29 29 27 26 26 26 31 32 33 35 33 32 30 27 28 28 32 32 30 29 28 29 25
42 43 43 44 45 45 46 45 44 44 45 38 35 35 36 36 35 33 34 34 33 33 33 30 29 28 27 26 25 25 29 29 29 32 30 33 29 31 27 29 29 27 28 29 29 29 28
41 43 45 45 44 44 46 45 44 44 43 36 36 39 38 35 33 32 32 33 33 36 36 34 32 29 28 34 33 33 29 29 29 30 29 31 31 27 23 28 28 26 28 28 28 29 28
42 42 45 44 44 44 44 46 45 44 42 36 34 39 35 31 32 31 33 33 34 36 36 33 35 33 35 36 34 32 30 30 30 29 29 28 32 30 23 26 16 27 30 30 28 28 29
42 42 45 44 44 44 44 44 45 44 43 38 36 34 33 25 24 28 32 33 35 36 36 36 38 39 37 36 30 29 29 29 28 30 30 28 32 31 24 22 24 24 30 30 28 28 29
43 44 44 44 43 43 44 44 44 45 43 40 39 38 33 29 23 22 28 32 33 34 34 37 41 42 40 38 33 27 26 24 27 30 33 30 30 28 28 22 21 31 31 32 32 31 32
44 45 45 44 43 43 44 44 44 44 44 42 40 40 35 28 24 25 27 31 34 36 36 37 39 39 41 35 30 28 26 27 24 24 29 30 30 28 29 26 24 32 34 35 31 31 35
45 46 47 44 43 43 44 44 45 43 44 44 40 40 36 31 30 29 26 25 27 30 35 38 37 38 38 33 31 31 25 26 26 25 27 26 27 26 27 27 21 35 36 34 37 39 39
46 47 47 43 43 43 44 44 44 43 43 42 39 39 39 36 32 34 33 31 29 28 31 35 38 37 39 36 34 31 29 27 26 23 28 26 27 25 26 27 31 33 34 37 37 37 38
Lifted_Index
11 11 10 9 9 8 7 6 6 6 5 5 5 4 3 1 -0 -0 -1 -1 -1 -1 -1 -1 -1 -0 1 2 3 3 1 -0 -1 -1 -0 1 1 1 0 1 1 1 1 1 1 1 2
11 11 10 9 9 8 7 6 6 6 5 5 5 4 3 1 -0 -0 -1 -1 -1 -1 -1 -1 -1 -0 1 2 2 2 1 -0 -1 -1 -0 1 1 1 0 0 1 1 1 1 1 1 2
12 11 10 10 9 8 7 6 6 5 5 4 4 4 3 1 -1 -1 -1 -1 -2 -2 -2 -1 -1 0 1 1 1 1 1 -0 -1 -1 -0 0 0 0 -0 -0 0 1 1 1 1 2 2
12 11 10 10 10 9 7 6 6 5 4 4 4 3 2 1 -0 -0 -0 -1 -2 -2 -2 -2 -1 0 1 1 1 1 1 -0 -1 -1 -1 -0 -0 -0 -0 -0 0 1 1 1 2 2 2
12 11 10 10 10 9 8 7 6 5 4 4 3 3 2 1 0 0 -0 -1 -1 -2 -2 -1 -1 0 0 0 1 2 1 0 -1 -1 -1 -1 -1 -0 -0 0 0 1 1 1 2 2 2
12 12 11 11 11 10 8 7 6 5 4 4 3 3 2 2 1 1 -0 -1 -1 -1 -1 -1 -0 0 0 0 1 2 1 -0 -1 -2 -1 -1 -0 0 0 0 1 1 1 1 2 2 2
12 12 11 11 11 10 9 8 7 6 5 4 4 3 3 3 2 1 0 -0 -0 -0 -0 0 0 1 1 0 1 1 0 -0 -1 -1 -1 -0 1 1 1 1 1 1 1 2 1 2 2
13 13 12 12 11 10 9 8 7 6 5 5 4 4 4 4 3 2 1 1 1 1 1 1 1 1 1 0 0 -0 -0 -0 -0 -0 0 1 1 1 1 1 1 1 1 2 2 2 2
13 13 13 12 11 11 10 9 8 7 6 5 5 4 4 5 4 4 3 3 2 1 1 1 1 1 1 0 -0 -0 0 0 0 1 1 1 1 1 1 1 1 1 2 2 2 2 2
14 14 13 12 12 11 10 9 9 8 7 6 6 5 5 5 5 5 4 4 3 2 1 1 1 1 1 0 0 1 1 1 1 1 2 2 1 1 1 1 1 1 1 2 2 2 2
15 14 13 12 12 11 11 10 9 9 8 7 7 6 6 5 6 5 5 5 4 2 1 1 1 1 1 0 1 1 2 2 2 2 2 1 1 1 0 0 0 0 1 1 2 2 2
15 15 13 12 12 11 11 10 10 9 9 8 7 7 6 6 6 6 5 5 4 2 1 1 1 1 0 0 1 1 2 2 2 2 2 1 1 1 1 0 0 0 1 1 1 1 1
16 15 14 13 12 11 11 11 10 10 9 9 7 7 6 6 6 6 6 5 3 2 1 1 1 1 0 0 1 1 1 2 2 2 1 1 1 1 1 1 1 1 1 1 1 1 1
16 16 15 13 12 12 12 11 11 10 9 9 7 6 6 7 7 6 5 4 3 2 2 2 1 1 1 1 1 1 1 1 2 1 1 1 1 1 1 1 1 1 1 0 0 0 1
17 16 15 14 12 12 12 12 11 10 10 9 7 6 6 6 6 6 4 3 3 3 2 2 2 2 1 1 1 1 1 1 1 1 1 1 1 1 1 1 1 1 1 0 -0 0 0
17 16 15 14 13 12 12 12 12 11 10 9 7 5 5 5 5 4 3 3 3 3 3 3 2 2 2 1 1 1 1 2 2 1 1 1 1 1 1 1 1 1 1 0 0 0 0
17 17 16 15 14 13 12 12 12 12 11 9 6 5 4 5 4 3 3 3 3 3 3 3 3 2 2 1 1 2 2 2 2 2 2 2 1 1 1 2 1 1 1 1 0 0 0
17 17 16 15 14 13 12 12 13 13 11 9 6 4 4 4 3 2 3 3 3 3 4 4 3 3 2 2 2 2 2 2 2 2 2 2 2 2 2 2 2 2 1 1 1 1 1
18 17 17 16 15 14 13 12 12 13 12 10 7 4 4 3 3 2 3 3 3 3 4 4 4 4 3 3 3 2 2 3 3 3 3 3 2 2 2 2 2 2 2 2 1 1 1
18 17 17 16 16 15 13 12 12 13 12 10 7 4 3 3 3 3 3 3 3 3 4 4 4 4 4 3 3 3 3 3 3 3 3 3 3 2 2 2 3 3 3 3 2 2 2
18 17 17 16 16 15 13 12 12 12 11 9 7 5 4 3 3 3 3 3 3 3 3 4 4 4 4 4 3 3 3 3 3 3 3 3 3 3 3 3 3 3 3 3 3 3 3
17 17 17 16 16 15 13 12 12 12 11 10 8 7 5 4 3 3 3 3 3 3 3 3 4 4 4 3 3 3 3 3 3 3 4 3 3 3 3 3 3 3 4 4 4 4 4
17 16 16 16 16 15 13 12 11 12 12 11 10 9 7 4 3 3 3 3 3 3 3 3 3 3 3 3 3 3 3 3 3 3 4 3 3 3 3 3 3 3 3 4 4 4 4
16 16 16 16 16 15 13 11 11 11 11 11 11 10 8 5 4 4 3 3 3 3 3 3 3 3 3 3 3 3 3 3 3 4 4 4 4 3 3 2 2 3 3 3 3 4 4
15 15 15 16 16 15 13 11 10 10 11 11 11 11 9 7 6 5 4 4 4 3 3 2 2 3 3 3 3 3 3 3 4 4 4 4 4 3 3 2 2 2 3 3 3 3 3
14 14 14 15 15 14 13 11 10 10 10 10 10 11 10 9 8 8 7 5 4 4 3 3 2 2 2 2 3 3 3 3 3 3 4 4 4 4 3 2 2 2 3 3 2 2 2
13 13 14 14 15 14 12 10 9 9 9 9 9 10 10 9 9 9 9 8 6 5 4 3 3 2 2 2 3 3 3 3 3 3 3 4 4 4 3 2 2 2 3 2 2 2 2
12 12 13 14 14 13 11 10 9 9 8 8 9 10 10 9 9 9 10 10 9 7 6 4 3 3 3 2 3 3 3 3 3 3 3 3 4 3 3 3 2 3 3 2 2 2 2
11 12 13 13 13 12 11 9 9 8 8 8 8 10 10 9 8 9 10 11 10 9 7 5 4 3 3 3 3 3 3 3 3 3 3 3 3 3 3 3 3 3 3 2 2 2 2